Wind_Speed
12 17 21 23 24 25 24 22 21 21 21 20 19 16 14 12 11 10 8 7 6 5 5 5 6 7 8 11 12 13 15 16 16 14 7 5 10 9 13 18 18 18 18
12 18 22 24 25 26 25 23 22 21 21 19 18 17 15 14 12 11 9 7 6 4 3 3 3 4 6 7 9 11 13 15 15 14 6 2 5 11 8 15 17 18 18
13 19 23 24 24 26 26 24 22 21 21 20 18 17 15 14 14 13 11 10 9 7 5 3 1 1 3 5 8 10 12 14 15 13 8 4 4 10 6 9 16 15 16
13 17 21 23 24 25 25 23 22 22 21 20 18 15 14 14 15 14 13 11 10 8 7 5 4 3 3 4 6 9 11 13 13 13 9 6 7 4 4 8 9 13 13
13 18 20 21 22 24 24 23 23 21 21 20 18 16 16 15 14 15 14 13 11 9 8 7 6 5 4 4 6 8 10 12 12 10 9 9 8 6 6 7 13 13 12
13 16 19 22 23 24 25 25 23 23 22 21 18 16 15 14 14 14 14 13 11 10 8 7 7 6 6 5 7 8 10 11 11 10 9 7 6 8 7 8 13 16 14
12 18 22 24 24 25 24 24 24 23 22 20 18 16 14 13 12 12 12 11 10 9 8 7 7 6 6 7 8 9 11 12 12 10 9 9 9 10 12 13 11 14 18
11 16 20 23 24 24 24 24 23 22 21 18 16 15 13 13 13 12 11 11 10 9 8 7 6 7 8 10 11 12 13 13 12 12 11 11 11 12 13 15 16 15 10
8 13 19 22 24 24 24 23 22 20 19 18 17 16 14 12 11 10 9 9 8 7 7 7 8 9 11 12 14 14 13 13 13 14 14 14 14 14 15 15 16 15 13
6 12 16 20 22 23 24 23 21 21 20 19 17 15 13 12 10 9 8 7 6 7 8 10 12 13 13 13 13 14 14 15 16 17 17 18 19 19 19 19 19 19 18
6 10 15 18 21 22 23 23 22 22 21 19 16 14 13 11 9 7 6 7 9 10 10 10 11 12 13 14 15 16 17 18 19 20 20 21 21 21 21 20 21 22 21
7 11 16 20 22 23 22 22 23 21 20 19 17 13 12 10 9 8 8 8 9 9 11 12 13 14 15 16 17 18 19 20 21 21 22 23 22 23 22 22 22 22 23
10 12 13 18 21 21 22 24 25 26 22 19 16 12 9 5 6 7 8 9 11 12 13 14 15 15 16 17 18 19 21 22 23 24 25 25 25 25 22 20 20 20 21
15 14 16 15 19 21 24 24 23 21 18 15 12 7 4 6 7 8 10 11 12 13 14 15 16 17 18 19 21 22 23 24 24 25 26 26 26 26 24 23 21 19 20
15 15 20 23 23 24 24 22 18 15 13 9 7 5 6 7 8 9 11 12 13 13 14 16 17 18 20 21 21 21 21 21 21 22 23 24 25 26 26 23 20 20 21
18 19 21 22 23 22 19 17 14 11 9 6 5 6 6 7 9 10 11 12 12 14 15 16 17 17 17 17 17 18 17 16 16 16 16 16 19 18 18 19 21 23 24
21 23 23 22 19 18 15 13 10 8 6 6 5 6 7 8 10 10 11 12 13 14 14 15 15 16 15 15 14 15 15 14 14 15 16 16 16 18 18 19 19 21 22
20 21 20 19 17 15 12 9 7 5 5 6 7 8 9 10 11 12 13 13 14 14 14 14 15 14 14 13 14 15 16 15 16 16 17 17 18 17 17 17 18 19 19
19 19 17 16 14 12 9 7 6 6 7 8 10 11 11 11 11 12 13 14 14 14 15 15 14 14 13 13 14 15 16 16 16 16 17 18 19 18 18 18 20 20 21
15 15 12 11 11 10 8 7 8 8 10 11 11 11 12 13 12 13 14 14 15 15 15 14 13 14 14 13 13 13 13 15 17 18 18 19 19 19 19 21 23 25 23
16 14 13 11 10 10 10 10 10 11 11 11 12 12 13 13 14 14 14 14 15 15 15 15 14 14 14 14 14 15 14 16 18 19 19 20 19 20 20 21 22 25 24
14 12 11 11 9 8 9 9 11 12 13 12 12 13 13 14 14 14 14 14 15 15 16 16 15 15 14 16 16 17 15 17 20 22 20 20 20 21 22 23 24 25 27
13 11 10 10 9 10 10 11 13 13 13 13 13 13 13 13 13 13 13 14 14 14 15 15 15 15 14 14 16 15 14 15 15 18 21 23 24 24 25 24 24 24 24
13 12 12 11 11 12 12 12 12 12 12 11 11 12 11 11 12 13 14 15 15 15 15 14 14 13 13 13 15 15 15 16 18 19 21 23 24 24 24 22 21 19 20
13 13 13 13 13 12 12 13 13 12 11 10 9 10 10 10 11 11 12 14 15 15 15 14 14 16 17 16 18 20 21 20 22 23 26 26 23 21 17 19 21 22 22
16 16 14 13 13 12 12 14 12 11 10 9 9 10 10 10 11 12 12 12 14 15 15 16 17 19 20 22 22 20 21 21 21 23 22 20 21 21 21 19 19 18 19
Wind_Direction
184 187 188 190 191 194 195 197 198 198 198 197 195 193 194 192 192 189 181 172 158 142 119 96 80 69 59 50 43 37 33 31 29 26 26 35 31 36 35 31 31 31 31
179 184 186 189 192 195 195 198 199 201 199 201 201 200 198 197 199 197 194 189 184 178 164 129 90 63 52 46 36 28 25 23 22 22 25 4 353 13 26 27 26 26 27
180 183 186 189 191 195 196 198 200 198 200 199 198 199 200 201 201 200 200 200 201 204 206 206 198 30 26 23 21 20 19 16 14 15 25 359 353 353 350 7 16 16 19
181 183 183 188 191 191 193 196 196 196 198 198 198 203 210 207 203 204 207 210 214 220 226 236 253 283 320 349 2 7 9 10 5 360 5 4 351 357 334 332 350 2 4
186 184 183 185 185 188 190 190 191 194 196 196 198 202 204 206 208 208 210 214 220 229 237 247 260 274 292 318 344 355 359 357 352 348 343 339 340 340 336 316 326 342 350
185 181 181 182 183 185 186 187 190 193 193 195 199 203 208 209 206 206 208 213 220 230 243 256 269 281 291 307 327 336 338 338 334 327 323 323 324 319 330 314 319 325 330
179 183 183 181 181 182 186 190 192 192 193 196 200 202 203 203 203 205 210 216 226 237 247 255 263 270 280 296 308 315 319 320 316 312 308 305 307 311 313 315 315 316 319
180 182 184 184 184 185 188 190 190 193 192 194 196 195 194 197 200 203 209 216 224 232 243 252 264 278 290 299 306 310 310 307 302 300 299 299 299 300 302 307 312 316 304
169 181 185 186 186 186 187 189 189 189 189 189 189 190 191 193 196 200 204 210 217 226 239 256 272 283 291 296 300 302 301 298 296 294 295 296 295 295 294 294 295 297 307
162 178 181 184 184 184 185 185 187 188 187 186 187 187 185 185 186 188 196 207 222 240 259 272 279 284 289 292 294 294 293 293 292 291 292 294 295 295 295 294 293 291 284
166 172 176 179 181 182 182 183 184 184 183 182 179 178 175 175 177 189 212 235 252 261 267 274 281 285 287 288 288 288 288 288 288 288 288 288 288 289 289 289 288 286 283
185 184 181 179 178 181 180 182 180 180 179 176 173 174 173 196 207 229 243 251 262 269 276 280 281 282 284 286 286 285 285 285 285 286 286 286 286 285 284 283 280 279 280
190 177 176 176 175 176 175 175 174 175 175 176 183 196 194 197 222 239 255 263 268 271 273 276 279 281 283 284 285 286 285 284 283 284 284 284 283 282 281 279 278 277 277
196 184 178 174 163 163 168 173 171 173 182 188 180 155 162 226 244 255 260 266 272 276 279 281 283 285 287 288 288 288 287 285 284 283 282 281 280 280 280 279 276 276 275
201 193 181 182 174 169 164 166 167 165 164 148 130 168 219 241 259 268 271 271 272 274 277 281 285 288 289 290 290 288 286 285 283 282 281 282 278 277 276 276 275 275 275
202 192 183 173 165 162 160 159 159 150 132 146 192 226 251 268 272 274 274 275 279 282 285 288 289 291 291 292 293 291 288 288 289 287 284 280 282 285 282 277 273 268 268
188 179 173 167 164 157 157 150 145 149 171 205 234 263 277 280 279 278 280 281 284 285 287 292 296 302 302 302 299 295 293 288 285 283 285 286 283 288 290 287 281 274 266
180 179 176 170 166 157 158 160 173 198 226 256 279 289 290 287 285 284 283 284 288 294 299 299 298 296 296 295 295 296 295 289 285 287 288 286 288 289 292 288 285 283 282
186 182 178 172 167 166 176 200 236 255 269 283 290 291 287 287 289 290 292 293 295 295 294 295 293 292 291 291 292 293 290 289 287 288 287 286 286 288 288 284 284 285 283
171 165 169 176 185 188 212 245 265 269 278 285 287 291 297 294 292 290 291 292 291 291 292 292 289 286 287 292 297 295 292 289 289 288 287 287 287 285 284 282 281 281 283
173 177 180 186 200 227 244 255 265 278 285 289 292 294 293 293 294 294 292 290 290 292 292 291 288 285 285 291 296 296 288 285 287 287 289 288 288 286 284 281 279 279 281
194 197 201 208 228 244 253 266 280 286 287 289 288 287 289 290 289 286 287 289 290 290 291 293 293 290 289 290 298 299 290 286 283 284 286 286 287 290 289 285 282 279 276
205 207 220 234 248 258 267 272 274 275 278 280 282 283 284 284 283 282 283 283 286 287 289 294 296 294 292 294 300 297 295 288 282 282 285 287 287 285 281 277 278 279 278
213 222 231 240 250 256 258 261 266 272 277 279 280 280 279 278 279 281 284 284 287 286 288 290 293 292 289 293 302 300 299 300 298 297 298 298 291 287 284 283 282 279 278
223 228 230 235 246 254 264 270 277 279 279 279 278 275 275 276 277 279 282 284 284 283 282 286 294 291 290 287 300 300 297 295 294 297 293 292 286 284 288 284 282 279 279
225 228 232 238 245 252 260 267 271 272 274 270 266 269 274 276 281 287 289 283 285 281 273 272 274 279 282 286 293 294 290 288 291 291 288 286 288 288 288 288 286 281 278
Height
1499 1501 1505 1508 1512 1515 1519 1522 1525 1529 1532 1535 1537 1540 1542 1543 1545 1547 1548 1549 1550 1551 1552 1552 1552 1552 1552 1551 1551 1550 1549 1548 1547 1546 1545 1544 1543 1542 1541 1540 1538 1537 1534
1497 1499 1502 1506 1509 1513 1516 1520 1523 1527 1530 1533 1536 1539 1540 1542 1544 1546 1547 1549 1550 1551 1551 1552 1552 1552 1552 1552 1551 1550 1549 1549 1548 1547 1545 1546 1546 1544 1543 1542 1540 1538 1536
1495 1496 1499 1503 1507 1510 1513 1517 1521 1524 1528 1531 1534 1537 1539 1540 1542 1544 1545 1547 1548 1549 1550 1551 1551 1552 1552 1551 1551 1550 1550 1549 1549 1548 1548 1547 1547 1544 1544 1543 1541 1540 1537
1493 1495 1497 1501 1504 1507 1511 1515 1519 1522 1526 1529 1532 1535 1538 1539 1540 1542 1543 1545 1547 1548 1549 1549 1550 1551 1551 1551 1551 1550 1550 1550 1549 1548 1548 1548 1547 1546 1546 1544 1543 1541 1538
1491 1493 1495 1499 1502 1506 1509 1513 1516 1520 1524 1528 1531 1533 1535 1536 1538 1540 1541 1543 1545 1546 1547 1548 1548 1549 1550 1550 1550 1549 1549 1549 1549 1549 1548 1547 1547 1546 1546 1544 1542 1540 1539
1489 1492 1495 1497 1501 1504 1508 1511 1514 1517 1521 1525 1528 1531 1533 1534 1536 1538 1540 1541 1543 1544 1545 1546 1547 1548 1548 1548 1548 1548 1548 1548 1548 1548 1547 1547 1547 1545 1545 1543 1540 1538 1537
1488 1490 1493 1496 1499 1503 1507 1510 1513 1515 1519 1522 1525 1528 1530 1533 1535 1537 1538 1540 1541 1542 1543 1544 1545 1545 1546 1546 1546 1546 1546 1546 1546 1545 1545 1545 1545 1544 1542 1541 1539 1537 1533
1488 1490 1493 1495 1499 1502 1506 1509 1512 1515 1518 1521 1524 1526 1528 1531 1532 1534 1536 1537 1538 1540 1541 1542 1543 1544 1544 1544 1544 1544 1544 1544 1543 1543 1543 1542 1542 1541 1541 1539 1537 1535 1534
1488 1490 1492 1495 1498 1501 1505 1509 1512 1515 1518 1520 1522 1524 1526 1528 1531 1532 1534 1536 1537 1538 1539 1540 1540 1541 1541 1541 1541 1540 1541 1541 1541 1540 1540 1539 1539 1538 1537 1537 1536 1536 1533
1488 1489 1491 1494 1497 1500 1503 1507 1511 1513 1516 1518 1521 1522 1524 1526 1528 1530 1532 1534 1535 1536 1537 1537 1537 1537 1537 1537 1537 1537 1537 1537 1537 1537 1536 1536 1535 1534 1533 1533 1532 1532 1532
1489 1489 1490 1492 1495 1498 1502 1505 1509 1511 1514 1516 1519 1522 1522 1524 1526 1528 1530 1531 1532 1533 1533 1533 1534 1534 1534 1534 1534 1533 1534 1533 1533 1532 1532 1532 1531 1530 1529 1528 1527 1527 1526
1489 1490 1490 1491 1493 1497 1501 1505 1506 1510 1514 1514 1516 1521 1522 1524 1524 1526 1527 1528 1529 1529 1530 1530 1530 1530 1530 1530 1530 1530 1529 1529 1528 1528 1527 1527 1526 1525 1525 1523 1523 1522 1521
1488 1489 1491 1491 1493 1495 1499 1501 1503 1503 1510 1513 1514 1518 1519 1523 1524 1524 1525 1525 1526 1526 1526 1526 1526 1526 1525 1525 1524 1524 1524 1523 1523 1522 1521 1521 1520 1519 1519 1518 1517 1516 1515
1486 1488 1489 1493 1492 1494 1496 1499 1502 1505 1509 1511 1513 1516 1519 1522 1523 1523 1523 1522 1522 1522 1522 1522 1521 1521 1520 1519 1519 1518 1517 1516 1515 1515 1514 1514 1513 1512 1511 1511 1511 1511 1510
1484 1486 1487 1490 1490 1493 1495 1499 1502 1505 1507 1509 1512 1516 1518 1519 1519 1519 1519 1519 1518 1518 1518 1517 1517 1516 1515 1513 1512 1511 1510 1510 1508 1507 1507 1506 1506 1505 1504 1504 1504 1504 1503
1481 1484 1487 1489 1490 1493 1496 1499 1502 1504 1506 1510 1513 1515 1515 1515 1515 1515 1515 1514 1514 1514 1513 1512 1512 1510 1509 1507 1506 1505 1504 1503 1503 1502 1502 1501 1500 1499 1498 1498 1498 1498 1497
1480 1483 1486 1489 1493 1493 1497 1500 1502 1504 1507 1510 1510 1511 1511 1511 1511 1511 1510 1510 1509 1509 1508 1506 1505 1503 1503 1502 1501 1500 1499 1499 1498 1498 1497 1496 1495 1493 1492 1491 1489 1489 1489
1480 1484 1486 1489 1491 1493 1496 1499 1502 1504 1505 1506 1506 1507 1507 1507 1507 1507 1506 1505 1504 1503 1501 1501 1500 1499 1499 1497 1497 1495 1495 1495 1494 1492 1491 1490 1489 1488 1487 1485 1485 1484 1483
1480 1483 1486 1489 1491 1492 1495 1498 1501 1501 1501 1502 1502 1502 1502 1502 1502 1501 1500 1499 1498 1498 1498 1497 1496 1495 1495 1493 1493 1492 1491 1489 1489 1488 1486 1485 1484 1483 1482 1481 1480 1479 1478
1481 1483 1485 1488 1490 1492 1494 1496 1497 1498 1497 1498 1498 1497 1496 1497 1496 1496 1496 1494 1494 1493 1493 1493 1492 1490 1490 1489 1488 1487 1486 1485 1485 1484 1482 1481 1479 1478 1478 1476 1475 1473 1472
1481 1482 1484 1487 1490 1491 1492 1493 1493 1493 1493 1493 1492 1491 1491 1492 1491 1491 1491 1490 1489 1489 1488 1488 1487 1485 1485 1484 1483 1483 1482 1482 1480 1478 1476 1475 1474 1473 1472 1471 1469 1467 1466
1480 1481 1484 1485 1487 1487 1489 1489 1488 1489 1489 1488 1488 1487 1486 1487 1487 1487 1486 1486 1485 1484 1484 1483 1481 1480 1480 1479 1478 1477 1476 1476 1474 1472 1471 1469 1468 1466 1465 1464 1462 1461 1459
1477 1478 1480 1482 1483 1484 1484 1484 1485 1485 1484 1484 1483 1482 1482 1482 1482 1482 1482 1482 1481 1480 1479 1477 1476 1476 1475 1475 1474 1472 1471 1470 1469 1467 1465 1463 1461 1460 1458 1456 1455 1453 1452
1473 1475 1477 1477 1479 1480 1480 1480 1480 1479 1479 1479 1478 1478 1478 1478 1478 1478 1477 1476 1475 1475 1473 1473 1472 1471 1471 1471 1471 1469 1467 1466 1463 1460 1458 1456 1454 1453 1451 1448 1447 1446 1444
1471 1473 1473 1474 1475 1475 1474 1474 1474 1474 1474 1474 1474 1473 1473 1473 1473 1473 1472 1471 1470 1470 1469 1469 1468 1468 1466 1466 1465 1464 1462 1460 1457 1455 1452 1449 1447 1445 1443 1442 1441 1439 1436
1468 1469 1470 1470 1471 1471 1469 1469 1469 1469 1469 1469 1469 1469 1469 1469 1469 1468 1467 1466 1464 1463 1464 1464 1464 1463 1461 1460 1458 1457 1455 1453 1451 1448 1445 1443 1442 1440 1437 1435 1433 1431 1430